Weather History for Garden City, KS

Change the Weather History Date:

Thursday, May 3, 2012

  Actual Average Record
Temperature  
Mean Temperature 72 °F 59 °F  
Max Temperature 87 °F 73 °F 94 °F (1996)
Min Temperature 57 °F 45 °F 26 °F (2013)
Degree Days  
Heating Degree Days 0 7  
Month to date heating degree days 22  
Since 1 July heating degree days 5084  
Cooling Degree Days 6 1  
Month to date cooling degree days 3  
Year to date cooling degree days 15  
Growing Degree Days 22 (Base 50)    
Moisture  
Dew Point 55 °F    
Average Humidity 58    
Maximum Humidity 90    
Minimum Humidity 30    
Precipitation  
Precipitation 0.00 in 0.07 in 1.10 in (1981)
Month to date precipitation 0.22  
Year to date precipitation 4.28  
Sea Level Pressure  
Sea Level Pressure 29.72 in    
Wind  
Wind Speed 13 mph (ENE)    
Max Wind Speed 22 mph    
Max Gust Speed 25 mph    
Visibility 10 miles    
Events      
T = Trace of Precipitation, MM = Missing Value Source: NWS Daily Summary

Daily Weather History Graph

Daily Weather History Graph

Search for Another Location

Airport:

Trip Planner

Search our weather history database for the weather conditions in past years. The results will help you decide how hot, cold, wet, or windy it might be!

Date:

Astronomy

May. 03, 2012 Rise Set
Actual Time 6:44 AM CDT 8:35 PM CDT
Civil Twilight 6:15 AM CDT 9:04 PM CDT
Nautical Twilight 5:40 AM CDT 9:39 PM CDT
Astronomical Twilight 5:03 AM CDT 10:16 PM CDT
Moon 6:04 PM CDT 4:46 AM CDT
Length of Visible Light 14h 49m
Length of Day
13h 51m
Waxing Gibbous, 91% of the Moon is Illuminated
May 3
Waxing Gibbous
May 5
Full
May 12
Last Quarter
May 20
New
May 28
First Quarter

Hourly Weather History & Observations

Time (CDT) Temp. Heat Index Dew Point Humidity Pressure Visibility Wind Dir Wind Speed Gust Speed Precip Events Conditions
12:54 AM 64.9 °F - 62.1 °F 90% 29.60 in 10.0 mi SSE 13.8 mph - N/A   Clear
1:54 AM 64.9 °F - 62.1 °F 90% 29.62 in 10.0 mi South 13.8 mph - N/A   Clear
2:54 AM 64.0 °F - 59.0 °F 84% 29.60 in 10.0 mi South 10.4 mph - N/A   Clear
3:54 AM 59.0 °F - 50.0 °F 72% 29.65 in 10.0 mi West 12.7 mph - N/A   Clear
4:54 AM 57.0 °F - 50.0 °F 77% 29.66 in 10.0 mi North 21.9 mph - N/A   Clear
5:54 AM 59.0 °F - 48.0 °F 67% 29.68 in 10.0 mi North 20.7 mph - N/A   Clear
6:54 AM 57.9 °F - 46.9 °F 67% 29.70 in 10.0 mi NNE 17.3 mph - N/A   Clear
7:54 AM 59.0 °F - 48.0 °F 67% 29.75 in 10.0 mi North 9.2 mph - N/A   Clear
8:54 AM 64.9 °F - 48.0 °F 54% 29.77 in 10.0 mi North 18.4 mph - N/A   Clear
9:54 AM 70.0 °F - 48.0 °F 46% 29.77 in 10.0 mi NNE 18.4 mph - N/A   Clear
10:54 AM 73.9 °F - 52.0 °F 46% 29.79 in 10.0 mi NNE 17.3 mph 24.2 mph N/A   Clear
11:54 AM 79.0 °F - 57.0 °F 47% 29.78 in 10.0 mi NNE 15.0 mph 21.9 mph N/A   Clear
12:54 PM 82.0 °F 81.6 °F 55.9 °F 41% 29.77 in 10.0 mi North 13.8 mph 25.3 mph N/A   Clear
1:54 PM 84.0 °F 82.6 °F 54.0 °F 35% 29.76 in 10.0 mi North 11.5 mph 17.3 mph N/A   Clear
2:54 PM 86.0 °F 84.5 °F 55.0 °F 35% 29.76 in 10.0 mi East 8.1 mph - N/A   Clear
3:54 PM 84.9 °F - 52.0 °F 32% 29.75 in 10.0 mi NNE 8.1 mph - N/A   Clear
4:54 PM 84.9 °F - 50.0 °F 30% 29.74 in 10.0 mi NNE 4.6 mph - N/A   Clear
5:54 PM 84.9 °F - 52.0 °F 32% 29.74 in 10.0 mi SE 6.9 mph - N/A   Clear
6:54 PM 86.0 °F - 52.0 °F 31% 29.73 in 10.0 mi SSE 6.9 mph - N/A   Clear
7:54 PM 81.0 °F 81.7 °F 61.0 °F 50% 29.74 in 10.0 mi ESE 12.7 mph - N/A   Clear
8:54 PM 73.9 °F - 62.1 °F 66% 29.75 in 10.0 mi East 6.9 mph - N/A   Clear
9:54 PM 71.1 °F - 62.1 °F 73% 29.75 in 10.0 mi East 6.9 mph - N/A   Clear
10:54 PM 70.0 °F - 62.1 °F 76% 29.76 in 10.0 mi ESE 9.2 mph - N/A   Clear
11:54 PM 66.9 °F - 61.0 °F 81% 29.75 in 10.0 mi East 6.9 mph - N/A   Clear